AXM5747 WBKW-WMKK

Flight info

Callsign AXM5747
Flight time N/A
Altitude 34000
Route TAWA1A VTW W441 LATIL W453 BRU M759 OLKIT M758 IDSEL Y335 PADLI Y343 SAROX SAROX1H
Aircraft A320/M-SDE3FGHIRWY/LB1

Departure

Time 2026-05-05 12:33
Airport Tawau Airport (WBKW)

Arrival

Time N/A
Airport Kuala Lumpur International Airport (WMKK)
Time Latitude Longitude Altitude Speed Heading
2026-05-05 11:57 4.31309 118.11480 55 ft 0 kts 328°
2026-05-05 12:23 4.31304 118.11483 53 ft 4 kts 327°
2026-05-05 12:24 4.31281 118.11498 54 ft 4 kts 329°
2026-05-05 12:24 4.31263 118.11508 52 ft 4 kts 329°
2026-05-05 12:24 4.31244 118.11523 54 ft 4 kts 273°
2026-05-05 12:24 4.31251 118.11542 50 ft 2 kts 237°
2026-05-05 12:25 4.31252 118.11543 49 ft 0 kts 237°
2026-05-05 12:26 4.31251 118.11541 50 ft 1 kts 237°
2026-05-05 12:27 4.31235 118.11515 50 ft 6 kts 238°
2026-05-05 12:27 4.31192 118.11498 54 ft 8 kts 168°
2026-05-05 12:27 4.31137 118.11531 54 ft 11 kts 147°
2026-05-05 12:27 4.31061 118.11578 54 ft 14 kts 147°
2026-05-05 12:28 4.31000 118.11636 52 ft 11 kts 101°
2026-05-05 12:28 4.31028 118.11694 52 ft 8 kts 59°
2026-05-05 12:28 4.31055 118.11740 52 ft 8 kts 59°
2026-05-05 12:28 4.31093 118.11802 52 ft 14 kts 58°
2026-05-05 12:29 4.31151 118.11897 53 ft 18 kts 58°
2026-05-05 12:29 4.31222 118.12007 52 ft 20 kts 58°
2026-05-05 12:29 4.31300 118.12133 55 ft 22 kts 58°
2026-05-05 12:29 4.31381 118.12266 53 ft 22 kts 58°
2026-05-05 12:30 4.31467 118.12398 53 ft 22 kts 59°
2026-05-05 12:30 4.31547 118.12534 53 ft 23 kts 59°
2026-05-05 12:30 4.31631 118.12673 56 ft 24 kts 58°
2026-05-05 12:30 4.31719 118.12814 52 ft 24 kts 58°
2026-05-05 12:31 4.31810 118.12961 50 ft 25 kts 58°
2026-05-05 12:31 4.31899 118.13097 51 ft 20 kts 47°
2026-05-05 12:31 4.31980 118.13156 53 ft 10 kts 54°
2026-05-05 12:31 4.31971 118.13196 54 ft 4 kts 180°
2026-05-05 12:32 4.31957 118.13190 54 ft 3 kts 208°
2026-05-05 12:32 4.31951 118.13182 54 ft 0 kts 231°
2026-05-05 12:32 4.31944 118.13174 52 ft 14 kts 233°
2026-05-05 12:32 4.31747 118.12858 50 ft 89 kts 238°
2026-05-05 12:33 4.31313 118.12154 52 ft 146 kts 238°
2026-05-05 12:33 4.30504 118.10826 547 ft 169 kts 239°
2026-05-05 12:33 4.30097 118.10167 1007 ft 167 kts 238°
2026-05-05 12:33 4.29480 118.09187 1565 ft 166 kts 237°
2026-05-05 12:34 4.28859 118.08204 2092 ft 166 kts 237°
2026-05-05 12:34 4.28240 118.07224 2634 ft 166 kts 237°
2026-05-05 12:34 4.27617 118.06244 3145 ft 167 kts 237°
2026-05-05 12:34 4.26958 118.05209 3417 ft 187 kts 237°
2026-05-05 12:35 4.26217 118.04047 3615 ft 209 kts 237°
2026-05-05 12:35 4.25393 118.02755 3781 ft 233 kts 237°
2026-05-05 12:35 4.24483 118.01311 4057 ft 257 kts 240°
2026-05-05 12:35 4.23971 117.99538 4472 ft 274 kts 270°
2026-05-05 12:36 4.24377 117.97668 5159 ft 280 kts 293°
2026-05-05 12:36 4.25145 117.95860 5945 ft 283 kts 294°
2026-05-05 12:36 4.25916 117.94066 6689 ft 286 kts 294°
2026-05-05 12:36 4.26708 117.92226 7409 ft 289 kts 293°
2026-05-05 12:37 4.27507 117.90365 8121 ft 293 kts 293°
2026-05-05 12:37 4.28316 117.88479 8838 ft 296 kts 293°
2026-05-05 12:37 4.29132 117.86572 9555 ft 299 kts 293°
2026-05-05 12:37 4.29954 117.84640 10208 ft 304 kts 293°
2026-05-05 12:38 4.30813 117.82622 10395 ft 326 kts 293°
2026-05-05 12:38 4.31735 117.80462 10568 ft 347 kts 293°
2026-05-05 12:38 4.32696 117.78206 11042 ft 355 kts 293°
2026-05-05 12:38 4.33666 117.75920 11627 ft 359 kts 293°
2026-05-05 12:39 4.34647 117.73611 12212 ft 362 kts 293°
2026-05-05 12:39 4.35642 117.71274 12808 ft 366 kts 293°
2026-05-05 12:39 4.36645 117.68916 13391 ft 369 kts 293°
2026-05-05 12:39 4.37660 117.66537 13928 ft 373 kts 293°
2026-05-05 12:40 4.38685 117.64135 14424 ft 376 kts 293°
2026-05-05 12:40 4.39720 117.61713 14919 ft 380 kts 293°
2026-05-05 12:40 4.40763 117.59267 15411 ft 383 kts 293°
2026-05-05 12:40 4.41814 117.56799 15901 ft 387 kts 293°
2026-05-05 12:41 4.42875 117.54311 16382 ft 390 kts 293°
2026-05-05 12:41 4.43945 117.51801 16859 ft 394 kts 293°
2026-05-05 12:41 4.45025 117.49268 17331 ft 397 kts 293°
2026-05-05 12:41 4.46114 117.46710 17805 ft 400 kts 293°
2026-05-05 12:42 4.47211 117.44133 18238 ft 404 kts 293°
2026-05-05 12:42 4.48322 117.41525 18635 ft 407 kts 293°
2026-05-05 12:42 4.49435 117.38909 19035 ft 409 kts 293°
2026-05-05 12:42 4.50557 117.36279 19434 ft 412 kts 293°
2026-05-05 12:43 4.51687 117.33633 19818 ft 415 kts 293°
2026-05-05 12:43 4.52823 117.30964 20204 ft 417 kts 293°
2026-05-05 12:43 4.53960 117.28283 20594 ft 419 kts 293°
2026-05-05 12:43 4.55105 117.25580 20978 ft 422 kts 293°
2026-05-05 12:44 4.56256 117.22868 21359 ft 424 kts 293°
2026-05-05 12:44 4.57415 117.20141 21718 ft 427 kts 293°
2026-05-05 12:44 4.58569 117.17432 22070 ft 429 kts 293°
2026-05-05 12:44 4.59744 117.14670 22433 ft 432 kts 293°
2026-05-05 12:45 4.60923 117.11895 22786 ft 434 kts 293°
2026-05-05 12:45 4.62111 117.09099 23136 ft 437 kts 293°
2026-05-05 12:45 4.63302 117.06293 23473 ft 439 kts 293°
2026-05-05 12:45 4.64499 117.03467 23759 ft 441 kts 293°
2026-05-05 12:46 4.65702 117.00633 24058 ft 443 kts 293°
2026-05-05 12:46 4.66913 116.97784 24348 ft 445 kts 293°
2026-05-05 12:46 4.68129 116.94927 24643 ft 446 kts 293°
2026-05-05 12:46 4.69348 116.92060 24935 ft 448 kts 293°
2026-05-05 12:47 4.70574 116.89175 25222 ft 450 kts 293°
2026-05-05 12:47 4.71806 116.86282 25508 ft 452 kts 293°
2026-05-05 12:47 4.73044 116.83378 25787 ft 453 kts 293°
2026-05-05 12:47 4.74271 116.80496 26054 ft 455 kts 293°
2026-05-05 12:48 4.75512 116.77568 26327 ft 457 kts 293°
2026-05-05 12:48 4.76756 116.74628 26581 ft 459 kts 293°
2026-05-05 12:48 4.78005 116.71670 26825 ft 461 kts 293°
2026-05-05 12:48 4.79260 116.68705 27087 ft 462 kts 293°
2026-05-05 12:49 4.80521 116.65735 27358 ft 464 kts 293°
2026-05-05 12:49 4.81785 116.62756 27600 ft 466 kts 293°
2026-05-05 12:49 4.83055 116.59760 27867 ft 467 kts 293°
2026-05-05 12:49 4.84327 116.56760 28130 ft 469 kts 293°
2026-05-05 12:50 4.85605 116.53745 28385 ft 471 kts 293°
2026-05-05 12:50 4.86888 116.50720 28630 ft 472 kts 293°
2026-05-05 12:50 4.88144 116.47676 28864 ft 474 kts 289°
2026-05-05 12:50 4.89018 116.44484 29087 ft 475 kts 280°
2026-05-05 12:51 4.89374 116.41194 29311 ft 476 kts 270°
2026-05-05 12:51 4.89328 116.37870 29520 ft 477 kts 268°
2026-05-05 12:51 4.89259 116.34576 29739 ft 479 kts 268°
2026-05-05 12:51 4.89196 116.31188 29955 ft 480 kts 268°
2026-05-05 12:52 4.89139 116.27875 30143 ft 482 kts 269°
2026-05-05 12:52 4.89086 116.24504 30331 ft 483 kts 269°
2026-05-05 12:52 4.89034 116.21133 30543 ft 484 kts 269°
2026-05-05 12:52 4.88981 116.17764 30830 ft 482 kts 269°
2026-05-05 12:53 4.88926 116.14408 31107 ft 481 kts 269°
2026-05-05 12:53 4.88869 116.11058 31383 ft 480 kts 269°
2026-05-05 12:53 4.88810 116.07707 31666 ft 479 kts 268°
2026-05-05 12:53 4.88751 116.04365 31942 ft 479 kts 269°
2026-05-05 12:54 4.88631 115.97698 32518 ft 477 kts 268°
2026-05-05 12:54 4.88570 115.94380 32805 ft 476 kts 269°
2026-05-05 12:54 4.88513 115.91070 33102 ft 475 kts 269°
2026-05-05 12:55 4.88458 115.87765 33404 ft 473 kts 269°
2026-05-05 12:55 4.88398 115.84468 33721 ft 472 kts 269°
2026-05-05 12:55 4.88337 115.81177 33888 ft 471 kts 269°
2026-05-05 12:56 4.88217 115.74668 33916 ft 464 kts 269°
2026-05-05 12:56 4.88109 115.68245 33918 ft 463 kts 269°
2026-05-05 12:57 4.87996 115.61786 33913 ft 463 kts 269°
2026-05-05 12:57 4.87876 115.55333 33906 ft 463 kts 269°
2026-05-05 12:58 4.87756 115.48875 33904 ft 463 kts 269°
2026-05-05 12:58 4.87636 115.42411 33899 ft 464 kts 269°
2026-05-05 12:59 4.87523 115.35944 33890 ft 464 kts 269°
2026-05-05 12:59 4.87405 115.29478 33884 ft 464 kts 269°
2026-05-05 13:00 4.87216 115.19762 33888 ft 464 kts 269°
2026-05-05 13:01 4.87302 115.06805 33884 ft 465 kts 271°
2026-05-05 13:01 4.87391 115.00307 33887 ft 465 kts 270°
2026-05-05 13:02 4.87450 114.93858 33888 ft 466 kts 270°
2026-05-05 13:02 4.87487 114.87362 33889 ft 466 kts 270°
2026-05-05 13:03 4.87438 114.80871 33887 ft 465 kts 269°
2026-05-05 13:03 4.87334 114.74382 33890 ft 465 kts 269°
2026-05-05 13:04 4.87240 114.67896 33883 ft 465 kts 269°
2026-05-05 13:04 4.87170 114.61402 33880 ft 465 kts 269°
2026-05-05 13:05 4.87110 114.54913 33886 ft 465 kts 269°
2026-05-05 13:05 4.87043 114.48424 33886 ft 465 kts 269°
2026-05-05 13:06 4.86970 114.41941 33890 ft 465 kts 269°
2026-05-05 13:06 4.86901 114.35468 33885 ft 464 kts 269°
2026-05-05 13:07 4.86827 114.28986 33886 ft 464 kts 269°
2026-05-05 13:07 4.86753 114.22512 33882 ft 464 kts 269°
2026-05-05 13:08 4.86676 114.16052 33881 ft 464 kts 269°
2026-05-05 13:08 4.86594 114.09585 33881 ft 464 kts 269°
2026-05-05 13:09 4.86517 114.03158 33881 ft 464 kts 269°
2026-05-05 13:09 4.86443 113.96693 33880 ft 463 kts 269°
2026-05-05 13:10 4.86368 113.90225 33885 ft 463 kts 269°
2026-05-05 13:10 4.86288 113.83766 33879 ft 463 kts 269°
2026-05-05 13:11 4.86208 113.77313 33880 ft 463 kts 269°
2026-05-05 13:11 4.86136 113.70863 33881 ft 463 kts 269°
2026-05-05 13:12 4.86057 113.64396 33881 ft 463 kts 269°
2026-05-05 13:12 4.85972 113.57973 33882 ft 464 kts 269°
2026-05-05 13:13 4.85889 113.51504 33879 ft 464 kts 269°
2026-05-05 13:13 4.85813 113.45033 33882 ft 464 kts 269°
2026-05-05 13:14 4.85736 113.38556 33885 ft 464 kts 269°
2026-05-05 13:14 4.85654 113.32076 33885 ft 464 kts 269°
2026-05-05 13:15 4.85565 113.25609 33880 ft 464 kts 269°
2026-05-05 13:15 4.85475 113.19140 33875 ft 464 kts 269°
2026-05-05 13:16 4.85394 113.12667 33879 ft 464 kts 269°
2026-05-05 13:16 4.85313 113.06193 33881 ft 464 kts 269°
2026-05-05 13:17 4.85224 112.99715 33882 ft 464 kts 269°
2026-05-05 13:17 4.85149 112.94334 33889 ft 465 kts 269°
2026-05-05 13:18 4.85062 112.87854 33885 ft 465 kts 269°
2026-05-05 13:18 4.84976 112.81379 33889 ft 465 kts 269°
2026-05-05 13:19 4.84880 112.73847 33891 ft 465 kts 269°